Overview Statistics Trail Chart Weather Telemetry Raw packets
 

This is the latest recevied weather packets stored in our database for station/object N0OQA. If no packets are shown the sender has not sent any weather packets the latest 10 day(s).

<< 24 25 26 27 28 29 30 >>
Time Temp. Humidity Pressure Rain* Wind** Luminosity Snow
1788234874 20° C 88% 1015.5 hPa 0 mm - - -
1788234573 20° C 88% 1015.5 hPa 0 mm - - -
1788230068 21.11° C 82% 1015.1 hPa 0 mm - - -
1788228866 21.67° C 81% 1014.9 hPa 0 mm - - -
1788228566 21.67° C 80% 1014.9 hPa 0 mm - - -
1788228266 21.67° C 80% 1014.9 hPa 0 mm - - -
1788227065 22.22° C 78% 1014.6 hPa 0 mm - - -
1788226464 22.78° C 77% 1014.5 hPa 0 mm - - -
1788226164 22.78° C 76% 1014.4 hPa 0 mm - - -
1788225258 23.33° C 73% 1014.4 hPa 0 mm - - -
1788224354 23.89° C 69% 1014.4 hPa 0 mm - - -
1788222553 25.56° C 62% 1014.3 hPa 0 mm - - -
1788221051 26.67° C 60% 1014.1 hPa 0 mm - - -
1788220141 27.78° C 56% 1014.2 hPa 0 mm - - -
1788219841 27.78° C 57% 1014.1 hPa 0 mm - - -
1788218940 28.33° C 51% 1014 hPa 0 mm - - -
1788215636 30° C 40% 1014 hPa 0 mm - - -
1788215036 30° C 40% 1014 hPa 0 mm - - -
1788214735 30° C 40% 1014 hPa 0 mm - - -
1788213234 30.56° C 37% 1013.9 hPa 0 mm - - -
1788211432 31.11° C 35% 1013.7 hPa 0 mm - - -
1788211132 31.11° C 35% 1013.6 hPa 0 mm - - -
1788210831 30.56° C 34% 1013.6 hPa 0 mm - - -
1788210531 30.56° C 34% 1013.6 hPa 0 mm - - -
1788210231 30.56° C 33% 1013.7 hPa 0 mm - - -

* Rain since midnight (hover to see other rain measurements)
** Current wind speed in m/s (hover to see current wind gust speed)